Tracking 28125 objects as of 2-Oct-2023
HD Live streaming from Space Station
objects crossing your sky now

COSMOS 1823 DEB

Track COSMOS 1823 DEB now!
10-day predictions


NORAD ID: 39810
Int'l Code: 1987-020EJ
Perigee: 1,478.9 km
Apogee: 1,535.8 km
Inclination: 73.7 °
Period: 116.0 minutes
Semi major axis: 7878 km
RCS: 0.0123 m2 (small)
Launch date: February 20, 1987
Source: Commonwealth of Independent States (former USSR) (CIS)
Launch site: PLESETSK MISSILE AND SPACE COMPLEX (PKMTR)

Note: This is SATELLITE DEBRIS
Your satellite tracking list
Your tracking list is empty




NASA's NSSDC Master Catalog

Two Line Element Set (TLE):
1 39810U 87020EJ  23266.76348875  .00000146  00000-0  11914-2 0  9994
2 39810  73.7008  74.1331 0036088  94.2966 266.2203 12.41514544423593
Source of the keplerian elements: AFSPC